D2913 Weather Reports


Display with metric or nautical units.
time (UTC)temp
F
wind
direction
speed
MPH
gust
MPH
rain 1hr
in
rain 24hr
in
rain mn
in
humidity
%
barometer
mb
20260905140517 71 0 0.0 0.0 0.00 0.00 0.00 84 1023.4
20260905140018 72 0 0.0 0.0 0.00 0.00 0.00 84 1023.4
20260905135517 72 0 0.0 0.0 0.00 0.00 0.00 84 1023.2
20260905135017 71 0 0.0 0.0 0.00 0.00 0.00 84 1023.4
20260905134516 71 0 0.0 0.0 0.00 0.00 0.00 84 1023.3
20260905134016 71 0 0.0 0.0 0.00 0.00 0.00 84 1023.3
20260905133518 71 0 0.0 0.0 0.00 0.00 0.00 84 1023.2
20260905133017 71 0 0.0 0.0 0.00 0.00 0.00 84 1023.3
20260905132517 71 0 0.0 0.0 0.00 0.00 0.00 85 1023.3
20260905130516 70 0 0.0 0.0 0.00 0.00 0.00 86 1023.1
20260905130017 69 0 0.0 0.0 0.00 0.00 0.00 85 1023.1
20260905125516 69 0 0.0 0.0 0.00 0.00 0.00 85 1022.9
20260905125016 69 0 0.0 0.0 0.00 0.00 0.00 85 1023.0
20260905124517 69 0 0.0 0.0 0.00 0.00 0.00 87 1023.0
20260905124019 69 0 0.0 0.0 0.00 0.00 0.00 88 1023.0
20260905123517 68 0 0.0 0.0 0.00 0.00 0.00 89 1022.9
20260905121517 67 0 0.0 0.0 0.00 0.00 0.00 90 1022.7
20260905121017 66 0 0.0 0.0 0.00 0.00 0.00 90 1022.6
20260905120516 65 0 0.0 0.0 0.00 0.00 0.00 89 1022.5
20260905120017 65 0 0.0 0.0 0.00 0.00 0.00 89 1022.4
20260905115516 64 0 0.0 0.0 0.00 0.00 0.00 86 1022.4
20260905115016 63 0 0.0 0.0 0.00 0.00 0.00 85 1022.4
20260905114517 63 0 0.0 0.0 0.00 0.00 0.00 86 1022.2
20260905114017 63 0 0.0 0.0 0.00 0.00 0.00 86 1022.2
20260905113542 62 0 0.0 0.0 0.00 0.00 0.00 85 1022.2
20260905113017 62 0 0.0 0.0 0.00 0.00 0.00 85 1022.0
20260905112517 62 0 0.0 0.0 0.00 0.00 0.00 85 1022.0
20260905112016 61 0 0.0 0.0 0.00 0.00 0.00 85 1021.9
20260905111517 61 0 0.0 0.0 0.00 0.00 0.00 84 1021.9
20260905111018 61 0 0.0 0.0 0.00 0.00 0.00 81 1021.8
20260905110517 60 0 0.0 0.0 0.00 0.00 0.00 82 1021.7
20260905110016 60 0 0.0 0.0 0.00 0.00 0.00 82 1021.6
20260905105517 60 0 0.0 0.0 0.00 0.00 0.00 82 1021.6
20260905105018 60 0 0.0 0.0 0.00 0.00 0.00 82 1021.6
20260905104518 59 0 0.0 0.0 0.00 0.00 0.00 83 1021.6
20260905104017 60 0 0.0 0.0 0.00 0.00 0.00 83 1021.6
20260905103517 60 0 0.0 0.0 0.00 0.00 0.00 84 1021.4
20260905103017 60 0 0.0 0.0 0.00 0.00 0.00 83 1021.4
20260905102517 60 0 0.0 0.0 0.00 0.00 0.00 83 1021.5
20260905102017 59 0 0.0 0.0 0.00 0.00 0.00 81 1021.4
20260905095516 59 0 0.0 0.0 0.00 0.00 0.00 81 1021.0
20260905095017 59 0 0.0 0.0 0.00 0.00 0.00 82 1021.0
20260905094516 59 0 0.0 0.0 0.00 0.00 0.00 83 1021.4
20260905094018 59 0 0.0 0.0 0.00 0.00 0.00 84 1021.2
20260905093517 59 0 0.0 0.0 0.00 0.00 0.00 85 1021.3
20260905091517 60 0 0.0 0.0 0.00 0.00 0.00 87 1021.4
20260905091018 60 0 0.0 0.0 0.00 0.00 0.00 87 1021.3
20260905090516 60 0 0.0 0.0 0.00 0.00 0.00 88 1021.2
20260905090018 60 0 0.0 0.0 0.00 0.00 0.00 86 1021.3
20260905085517 60 0 0.0 0.0 0.00 0.00 0.00 86 1021.3
20260905085016 60 0 0.0 0.0 0.00 0.00 0.00 87 1021.2
20260905084517 60 0 0.0 0.0 0.00 0.00 0.00 88 1021.2
20260905084017 61 0 0.0 0.0 0.00 0.00 0.00 88 1021.2
20260905083517 61 0 0.0 0.0 0.00 0.00 0.00 88 1021.6
20260905083018 61 0 0.0 0.0 0.00 0.00 0.00 89 1021.7
20260905081518 62 0 0.0 0.0 0.00 0.00 0.00 89 1021.1
20260905081017 62 0 0.0 0.0 0.00 0.00 0.00 89 1021.0
20260905080517 62 0 0.0 0.0 0.00 0.00 0.00 89 1021.0
20260905080017 61 0 0.0 0.0 0.00 0.00 0.00 89 1021.2
20260905075517 62 0 0.0 0.0 0.00 0.00 0.00 89 1021.1
20260905075016 61 0 0.0 0.0 0.00 0.00 0.00 88 1020.8
20260905074517 61 0 0.0 0.0 0.00 0.00 0.00 86 1020.7
20260905074017 60 0 0.0 0.0 0.00 0.00 0.00 86 1020.3
20260905073517 60 0 0.0 0.0 0.00 0.00 0.00 86 1020.2
20260905073017 60 0 0.0 0.0 0.00 0.00 0.00 87 1019.9
20260905072517 59 0 0.0 0.0 0.00 0.00 0.00 87 1019.9
20260905072016 59 0 0.0 0.0 0.00 0.00 0.00 87 1020.1
20260905071517 59 0 0.0 0.0 0.00 0.00 0.00 87 1020.0
20260905071016 59 0 0.0 0.0 0.00 0.00 0.00 87 1020.0
20260905070517 59 0 0.0 0.0 0.00 0.00 0.00 88 1020.1
20260905070016 59 0 0.0 0.0 0.00 0.00 0.00 88 1020.1
20260905065517 59 0 0.0 0.0 0.00 0.00 0.00 88 1020.1
20260905065016 59 0 0.0 0.0 0.00 0.00 0.00 88 1020.1
20260905064517 59 0 0.0 0.0 0.00 0.00 0.00 88 1020.0
20260905063017 59 0 0.0 0.0 0.00 0.00 0.00 88 1019.7
20260905062517 59 0 0.0 0.0 0.00 0.00 0.00 88 1019.6
20260905062017 59 0 0.0 0.0 0.00 0.00 0.00 88 1019.6
20260905061517 59 0 0.0 0.0 0.00 0.00 0.00 88 1019.5
20260905061017 59 0 0.0 0.0 0.00 0.00 0.00 89 1019.3
20260905060517 59 0 0.0 0.0 0.00 0.00 0.00 89 1019.3
20260905060016 60 0 0.0 0.0 0.00 0.00 0.00 89 1019.1
20260905055517 60 0 0.0 0.0 0.00 0.00 0.00 89 1019.4
20260905055039 60 0 0.0 0.0 0.00 0.00 0.00 90 1019.5
20260905054516 60 0 0.0 0.0 0.00 0.00 0.00 90 1019.7
20260905054018 60 0 0.0 0.0 0.00 0.00 0.00 90 1019.4
20260905053517 60 0 0.0 0.0 0.00 0.00 0.00 90 1019.6
20260905053018 61 0 0.0 0.0 0.00 0.00 0.00 90 1019.8
20260905052535 61 0 0.0 0.0 0.00 0.00 0.00 90 1019.7
20260905052017 61 0 0.0 0.0 0.00 0.00 0.00 89 1019.8
20260905051518 61 0 0.0 0.0 0.00 0.00 0.00 89 1020.0
20260905051017 62 0 0.0 0.0 0.00 0.00 0.00 88 1020.0
20260905050517 62 0 0.0 0.0 0.00 0.00 0.00 88 1019.9
20260905050018 62 0 0.0 0.0 0.00 0.00 0.00 88 1019.9
20260905045517 62 0 0.0 0.0 0.00 0.00 0.00 88 1019.9
20260905045017 62 0 0.0 0.0 0.00 0.00 0.00 88 1019.8
20260905044517 62 0 0.0 0.0 0.00 0.00 0.00 88 1019.7
20260905044017 62 0 0.0 0.0 0.00 0.00 0.00 88 1019.6
20260905043517 62 0 0.0 0.0 0.00 0.00 0.00 88 1019.5
20260905043018 62 0 0.0 0.0 0.00 0.00 0.00 88 1019.4
20260905042518 63 0 0.0 0.0 0.00 0.00 0.00 88 1019.3
20260905042017 63 0 0.0 0.0 0.00 0.00 0.00 88 1019.2
20260905041516 63 0 0.0 0.0 0.00 0.00 0.00 88 1019.1
20260905041017 63 0 0.0 0.0 0.00 0.00 0.00 88 1019.2
20260905040517 63 0 0.0 0.0 0.00 0.00 0.00 88 1019.0
20260905040017 63 0 0.0 0.0 0.00 0.00 0.00 89 1018.7
20260905035517 63 0 0.0 0.0 0.00 0.00 0.00 89 1018.8
20260905035017 63 0 0.0 0.0 0.00 0.00 0.00 89 1018.8
20260905034517 64 0 0.0 0.0 0.00 0.00 0.00 89 1018.6
20260905034017 64 0 0.0 0.0 0.00 0.00 0.00 89 1018.7
20260905033517 64 0 0.0 0.0 0.00 0.00 0.00 89 1018.4
20260905033017 64 0 0.0 0.0 0.00 0.00 0.00 89 1018.3
20260905032518 64 0 0.0 0.0 0.00 0.00 0.00 89 1018.3
20260905032018 65 0 0.0 0.0 0.00 0.00 0.00 89 1018.0
20260905031516 65 0 0.0 0.0 0.00 0.00 0.00 89 1018.1
20260905031017 66 0 0.0 0.0 0.00 0.00 0.00 89 1018.0
20260905030518 66 0 0.0 0.0 0.00 0.00 0.00 89 1018.1
20260905030017 67 0 0.0 0.0 0.00 0.00 0.00 89 1018.0
20260905025519 67 0 0.0 0.0 0.00 0.00 0.00 89 1017.9
20260905025018 67 0 0.0 0.0 0.00 0.00 0.00 89 1017.8
20260905024517 67 0 0.0 0.0 0.00 0.00 0.00 89 1017.7
20260905024017 67 0 0.0 0.0 0.00 0.00 0.00 88 1017.6
20260905023532 68 0 0.0 0.0 0.00 0.00 0.00 88 1017.5
20260905023017 68 0 0.0 0.0 0.00 0.00 0.00 88 1017.4
20260905022517 68 0 0.0 0.0 0.00 0.00 0.00 88 1017.5
20260905022018 68 0 0.0 0.0 0.00 0.00 0.00 88 1017.5
20260905021517 68 0 0.0 0.0 0.00 0.00 0.00 88 1017.5
20260905021016 68 0 0.0 0.0 0.00 0.00 0.00 88 1017.5
20260905020517 68 0 0.0 0.0 0.00 0.00 0.00 88 1017.5
20260905020017 69 0 0.0 0.0 0.00 0.00 0.00 87 1017.5
20260905015516 69 0 0.0 0.0 0.00 0.00 0.00 87 1017.5
20260905015016 69 0 0.0 0.0 0.00 0.00 0.00 87 1017.5
20260905014516 70 0 0.0 0.0 0.00 0.00 0.00 86 1017.4
20260905014017 70 0 0.0 0.0 0.00 0.00 0.00 86 1017.5
20260905012517 70 0 0.0 0.0 0.00 0.00 0.00 86 1017.4
20260905011516 70 0 0.0 0.0 0.00 0.00 0.00 86 1017.6
20260905011016 71 0 0.0 0.0 0.00 0.00 0.00 86 1017.5
20260905010517 71 0 0.0 0.0 0.00 0.00 0.00 86 1017.5
20260905005018 71 0 0.0 0.0 0.00 0.00 0.00 85 1017.7
20260905004017 71 0 0.0 0.0 0.00 0.00 0.00 85 1017.6
20260905002517 71 0 0.0 0.0 0.00 0.00 0.00 85 1017.3
20260905002017 70 0 0.0 0.0 0.00 0.00 0.00 86 1016.9
20260905001517 69 0 0.0 0.0 0.00 0.00 0.00 87 1016.8
20260905001018 69 0 0.0 0.0 0.00 0.00 0.00 87 1016.8
20260905000516 69 0 0.0 0.0 0.00 0.00 0.00 87 1016.8
20260905000016 69 0 0.0 0.0 0.00 0.00 0.00 87 1016.8
20260904235517 69 0 0.0 0.0 0.00 0.00 0.00 86 1016.9
20260904235017 69 0 0.0 0.0 0.00 0.00 0.00 86 1016.9
20260904234517 70 0 0.0 0.0 0.00 0.00 0.00 86 1016.8
20260904234017 71 0 0.0 0.0 0.00 0.00 0.00 85 1016.9
20260904232520 72 0 0.0 0.0 0.00 0.00 0.00 84 1017.1
20260904232017 72 0 0.0 0.0 0.00 0.00 0.00 84 1017.1
20260904231517 73 0 0.0 0.0 0.00 0.00 0.00 83 1017.3
20260904231017 73 0 0.0 0.0 0.00 0.00 0.00 83 1017.3
20260904230516 73 0 0.0 0.0 0.00 0.00 0.00 83 1017.3
20260904224017 73 0 0.0 0.0 0.00 0.00 0.00 83 1017.3
20260904223517 73 0 0.0 0.0 0.00 0.00 0.00 83 1017.3
20260904223016 73 0 0.0 0.0 0.00 0.00 0.00 84 1017.0
20260904222516 72 0 0.0 0.0 0.00 0.00 0.00 84 1017.1
20260904220517 70 0 0.0 0.0 0.00 0.00 0.00 85 1016.6
20260904220017 70 0 0.0 0.0 0.00 0.00 0.00 85 1016.6
20260904215517 70 0 0.0 0.0 0.00 0.00 0.00 84 1016.6
20260904215017 71 0 0.0 0.0 0.00 0.00 0.00 84 1016.7
20260904214518 71 0 0.0 0.0 0.00 0.00 0.00 84 1016.6
20260904214016 71 0 0.0 0.0 0.00 0.00 0.00 84 1016.6
20260904213517 71 0 0.0 0.0 0.00 0.00 0.00 83 1016.6
20260904213017 71 0 0.0 0.0 0.00 0.00 0.00 83 1016.4
20260904212517 71 0 0.0 0.0 0.00 0.00 0.00 83 1016.5
20260904212016 71 0 0.0 0.0 0.00 0.00 0.00 83 1016.6
20260904211545 71 0 0.0 0.0 0.00 0.00 0.00 83 1016.6
20260904211017 71 0 0.0 0.0 0.00 0.00 0.00 83 1016.5
20260904210539 71 0 0.0 0.0 0.00 0.00 0.00 83 1016.6
20260904210018 71 0 0.0 0.0 0.00 0.00 0.00 83 1016.6
20260904205518 71 0 0.0 0.0 0.00 0.00 0.00 83 1016.6
20260904205016 71 0 0.0 0.0 0.00 0.00 0.00 83 1016.6
20260904204516 71 0 0.0 0.0 0.00 0.00 0.00 83 1016.7
20260904204016 72 0 0.0 0.0 0.00 0.00 0.00 83 1016.7
20260904203517 72 0 0.0 0.0 0.00 0.00 0.00 82 1016.8
20260904203017 72 0 0.0 0.0 0.00 0.00 0.00 82 1016.7
20260904202517 72 0 0.0 0.0 0.00 0.00 0.00 82 1016.6
20260904202017 72 0 0.0 0.0 0.00 0.00 0.00 82 1016.7
20260904201516 73 0 0.0 0.0 0.00 0.00 0.00 82 1016.7
20260904201017 73 0 0.0 0.0 0.00 0.00 0.00 81 1016.8
20260904200517 73 0 0.0 0.0 0.00 0.00 0.00 81 1016.7
20260904200017 73 0 0.0 0.0 0.00 0.00 0.00 81 1016.7
20260904195517 73 0 0.0 0.0 0.00 0.00 0.00 81 1016.7
20260904195016 73 0 0.0 0.0 0.00 0.00 0.00 81 1016.6
20260904194517 73 0 0.0 0.0 0.00 0.00 0.00 81 1016.6
20260904194017 73 0 0.0 0.0 0.00 0.00 0.00 81 1016.6
20260904193517 73 0 0.0 0.0 0.00 0.00 0.00 81 1016.6
20260904193018 73 0 0.0 0.0 0.00 0.00 0.00 81 1016.7
20260904192518 73 0 0.0 0.0 0.00 0.00 0.00 82 1016.6
20260904192017 72 0 0.0 0.0 0.00 0.00 0.00 82 1016.5
20260904191517 72 0 0.0 0.0 0.00 0.00 0.00 82 1016.4
20260904191046 72 0 0.0 0.0 0.00 0.00 0.00 83 1016.3
20260904190543 72 0 0.0 0.0 0.00 0.00 0.00 83 1016.1
20260904184018 76 0 0.0 0.0 0.00 0.00 0.00 79 1016.5
20260904183517 76 0 0.0 0.0 0.00 0.00 0.00 79 1016.5
20260904183019 76 0 0.0 0.0 0.00 0.00 0.00 79 1016.2
20260904182516 76 0 0.0 0.0 0.00 0.00 0.00 79 1016.2
20260904182017 76 0 0.0 0.0 0.00 0.00 0.00 79 1016.1
20260904181535 76 0 0.0 0.0 0.00 0.00 0.00 79 1016.2
20260904181018 77 0 0.0 0.0 0.00 0.00 0.00 78 1016.2
20260904180516 77 0 0.0 0.0 0.00 0.00 0.00 78 1016.3
20260904180018 78 0 0.0 0.0 0.00 0.00 0.00 77 1016.1
20260904175516 78 0 0.0 0.0 0.00 0.00 0.00 77 1016.2
20260904175017 78 0 0.0 0.0 0.00 0.00 0.00 77 1016.1
20260904174517 79 0 0.0 0.0 0.00 0.00 0.00 76 1016.3
20260904174019 79 0 0.0 0.0 0.00 0.00 0.00 76 1016.3
20260904173517 79 0 0.0 0.0 0.00 0.00 0.00 76 1016.3
20260904172017 80 0 0.0 0.0 0.00 0.00 0.00 75 1016.4
20260904171517 80 0 0.0 0.0 0.00 0.00 0.00 75 1016.5
20260904170018 81 0 0.0 0.0 0.00 0.00 0.00 75 1016.6
20260904165019 81 0 0.0 0.0 0.00 0.00 0.00 75 1016.6
20260904164517 81 0 0.0 0.0 0.00 0.00 0.00 75 1016.6
20260904164018 82 0 0.0 0.0 0.00 0.00 0.00 75 1016.6
20260904163518 82 0 0.0 0.0 0.00 0.00 0.00 75 1016.7
20260904163016 82 0 0.0 0.0 0.00 0.00 0.00 74 1016.7
20260904162017 82 0 0.0 0.0 0.00 0.00 0.00 74 1016.7
20260904161517 83 0 0.0 0.0 0.00 0.00 0.00 74 1016.8
20260904161019 83 0 0.0 0.0 0.00 0.00 0.00 74 1016.8
20260904160518 83 0 0.0 0.0 0.00 0.00 0.00 74 1016.9
20260904155016 83 0 0.0 0.0 0.00 0.00 0.00 74 1017.3
20260904154542 83 0 0.0 0.0 0.00 0.00 0.00 73 1017.3
20260904154017 83 0 0.0 0.0 0.00 0.00 0.00 73 1017.3
20260904153018 83 0 0.0 0.0 0.00 0.00 0.00 73 1017.4
20260904152516 83 0 0.0 0.0 0.00 0.00 0.00 73 1017.4
20260904151517 84 0 0.0 0.0 0.00 0.00 0.00 72 1017.5
20260904151017 84 0 0.0 0.0 0.00 0.00 0.00 73 1017.5
20260904150517 84 0 0.0 0.0 0.00 0.00 0.00 73 1017.5
20260904150017 84 0 0.0 0.0 0.00 0.00 0.00 72 1017.5
20260904145017 84 0 0.0 0.0 0.00 0.00 0.00 73 1017.5
20260904144518 84 0 0.0 0.0 0.00 0.00 0.00 72 1017.7
20260904143517 84 0 0.0 0.0 0.00 0.00 0.00 72 1017.7
20260904143017 84 0 0.0 0.0 0.00 0.00 0.00 72 1017.8
20260904142019 84 0 0.0 0.0 0.00 0.00 0.00 73 1017.9
20260904141517 83 0 0.0 0.0 0.00 0.00 0.00 72 1017.8
20260904141017 83 0 0.0 0.0 0.00 0.00 0.00 72 1017.9